TimeEST,TemperatureF,Dew PointF,Humidity,Sea Level PressureIn,VisibilityMPH,Wind Direction,Wind SpeedMPH,Gust SpeedMPH,PrecipitationIn,Events,Conditions,WindDirDegrees,DateUTC
12:54 AM,52.0,18.0,26,29.91,10.0,WSW,9.2,-,N/A,,Clear,250,2013-02-12 05:54:00
1:54 AM,50.0,18.0,28,29.92,10.0,West,10.4,21.9,N/A,,Clear,270,2013-02-12 06:54:00
2:54 AM,48.0,19.9,33,29.93,10.0,WNW,10.4,17.3,N/A,,Clear,300,2013-02-12 07:54:00
3:54 AM,44.1,23.0,43,29.95,10.0,West,6.9,19.6,N/A,,Clear,280,2013-02-12 08:54:00
4:54 AM,44.1,23.0,43,29.96,10.0,Variable,3.5,-,N/A,,Clear,0,2013-02-12 09:54:00
5:54 AM,44.1,23.0,43,29.97,10.0,West,12.7,24.2,N/A,,Clear,270,2013-02-12 10:54:00
6:54 AM,43.0,21.9,43,29.98,10.0,West,11.5,24.2,N/A,,Clear,270,2013-02-12 11:54:00
7:54 AM,45.0,21.9,40,29.99,10.0,West,9.2,17.3,N/A,,Clear,260,2013-02-12 12:54:00
8:54 AM,46.0,21.9,39,29.99,10.0,West,8.1,-,N/A,,Clear,270,2013-02-12 13:54:00
9:54 AM,48.0,23.0,37,30.00,10.0,WSW,9.2,-,N/A,,Clear,250,2013-02-12 14:54:00
10:54 AM,51.1,19.9,29,30.01,10.0,Calm,Calm,-,N/A,,Clear,0,2013-02-12 15:54:00
11:54 AM,51.1,21.9,32,30.02,10.0,South,10.4,-,N/A,,Clear,190,2013-02-12 16:54:00
12:54 PM,55.0,21.0,27,29.96,10.0,West,9.2,-,N/A,,Clear,270,2013-02-12 17:54:00
1:54 PM,55.0,19.9,25,29.94,10.0,South,5.8,-,N/A,,Clear,180,2013-02-12 18:54:00
2:54 PM,57.0,19.9,24,29.96,10.0,SW,10.4,18.4,N/A,,Clear,220,2013-02-12 19:54:00
3:54 PM,55.0,19.9,25,29.95,10.0,WSW,6.9,-,N/A,,Clear,250,2013-02-12 20:54:00
4:54 PM,53.1,21.9,30,29.97,10.0,SSW,8.1,-,N/A,,Clear,210,2013-02-12 21:54:00
5:54 PM,51.1,23.0,33,29.97,10.0,SSW,4.6,-,N/A,,Clear,210,2013-02-12 22:54:00
6:54 PM,48.9,23.0,36,29.96,10.0,Calm,Calm,-,N/A,,Clear,0,2013-02-12 23:54:00
7:54 PM,46.9,25.0,42,29.94,10.0,Calm,Calm,-,N/A,,Clear,0,2013-02-13 00:54:00
8:54 PM,46.0,26.1,46,29.95,10.0,West,3.5,-,N/A,,Clear,270,2013-02-13 01:54:00
9:54 PM,48.0,21.0,34,29.96,10.0,Calm,Calm,-,N/A,,Clear,0,2013-02-13 02:54:00
10:54 PM,46.0,24.1,42,29.94,10.0,West,3.5,-,N/A,,Clear,270,2013-02-13 03:54:00
11:54 PM,44.1,25.0,47,29.95,10.0,Calm,Calm,-,N/A,,Scattered Clouds,0,2013-02-13 04:54:00